CZ-6A DEB, 60866

Orbit data source: Space-Track

CZ-6A DEB, 60866 is space debris in LEO originally from a launch on Tue, 06 Aug 2024 UTC launched from the Taiyaun Space Center, China (TSC). Debris objects in space refer to the collection of defunct objects orbiting the Earth. Examples of debris include non-operational satellites, rocket bodies, and fragments generated from explosions, collisions, or faulty payload assembly.

Loading next visibility...
Identifier
60866, 2024-140JV
Orbit
LEO
Country
Flag of CNCN / PRC
Related business
Manufacturer
SAST
Mission
Spacecraft
Bus & Motor
Unknown
Mass
Unknown
Launch date (UTC)
2024-08-06 (2 years ago)
Launch vehicle
Unknown
Launch site
Taiyaun Space Center, China (TSC)
Object type
Payload
Rocket body
Debris
Shape & HBR
Unknown shape, 0.2 m
Radar Cross Section
Medium (>0.1 m² and <1 m²)

Expand to show TLE details & history
Last TLE update: 14 hours ago

TLE from 14 hours ago
0 CZ-6A DEB
1 60866U 24140JV  26171.25283913  .00001755  00000-0  35357-3 0  9991
2 60866  88.9422 264.7001 0107237 261.0201  97.8860 14.57508464 97999
Epoch: 2026-06-20T06:04Z
TLE epoch observation values (Epoch: 2026-06-20T06:04:05.300Z)
Latitude
-0.00006°
Longitude
-94.79211°
Altitude
715.552 km
Speed
7.492 km/s
True Right ascension
17h 38m 48s
True Declination
0° 00' 00"
Sunlit
Object was in full shadow at epoch
Visualization orbit readout
Latitude
Unknown
Longitude
Unknown
Altitude
Unknown
Speed
Unknown
Apparent Right ascension
Unknown
Apparent Declination
Unknown
Sunlit
N/A
Visualization observer readout
Local Sidereal Time
07:22:51
Azimuth
Unknown
Elevation
Unknown
Doppler factor
Unknown
Orbital elements
Apogee altitude
774.012 km
Perigee altitude
622.244 km
Semi-major axis
7,076.265 km
Eccentricity
0.01072
Inclination
88.9422°
RAAN
264.7001°
Arg. of periapsis
261.0201°
True anomaly
99.1009°
Mean anomaly
97.886°
Eccentric anomaly
98.49368°
Mean motion
3.64617 °/min
Orbital period
98.73 mins
BSTAR
0.00035357
Loading maneuver chart data...
Computing Atmospheric mass density...
Loading historical data...
Loading historical data...
Loading historical data...
Loading historical data...
Loading historical data...
Loading historical data...
Loading historical data...

Documentation

Showing up to 5 results
|